This is the latest recevied weather packets stored in our database for station/object CT2IRJ-11. If no packets are shown the sender has not sent any weather packets the latest 10 day(s).
| Time | Temp. | Humidity | Pressure | Rain* | Wind** | Luminosity | Snow |
|---|---|---|---|---|---|---|---|
| 1788600006 | 27.22° C | 65% | 1019 hPa | 0 mm | - | 371 W/m² | - |
| 1788599706 | 26.67° C | 66% | 1018.6 hPa | 0 mm | - | 320 W/m² | - |
| 1788599405 | 26.67° C | 67% | 1018.6 hPa | 0 mm | - | 310 W/m² | - |
| 1788599106 | 25.56° C | 69% | 1018.6 hPa | 0 mm | - | 300 W/m² | - |
| 1788598805 | 25° C | 70% | 1018.6 hPa | 0 mm | - | 178 W/m² | - |
| 1788598506 | 24.44° C | 72% | 1018.6 hPa | 0 mm | - | 266 W/m² | - |
| 1788598206 | 24.44° C | 74% | 1018.6 hPa | 0 mm | - | 237 W/m² | - |
| 1788597906 | 23.33° C | 75% | 1018.3 hPa | 0 mm | - | 240 W/m² | - |
| 1788597605 | 23.89° C | 75% | 1018.6 hPa | 0 mm | - | 84 W/m² | - |
| 1788597305 | 23.33° C | 76% | 1018.6 hPa | 0 mm | - | 109 W/m² | - |
| 1788597007 | 23.89° C | 75% | 1018.6 hPa | 0 mm | - | 106 W/m² | - |
| 1788596707 | 23.89° C | 76% | 1018.3 hPa | 0 mm | - | 147 W/m² | - |
| 1788596406 | 23.33° C | 76% | 1018.3 hPa | 0 mm | - | 86 W/m² | - |
| 1788596105 | 22.78° C | 77% | 1018.3 hPa | 0 mm | - | 149 W/m² | - |
| 1788595807 | 23.33° C | 78% | 1018.3 hPa | 0 mm | - | 128 W/m² | - |
| 1788595506 | 22.78° C | 79% | 1018.3 hPa | 0 mm | - | 124 W/m² | - |
| 1788595205 | 22.78° C | 80% | 1018.3 hPa | 0 mm | - | 124 W/m² | - |
| 1788594905 | 22.22° C | 80% | 1018.3 hPa | 0 mm | - | 98 W/m² | - |
| 1788594606 | 21.67° C | 82% | 1018.3 hPa | 0 mm | - | 105 W/m² | - |
| 1788594306 | 21.67° C | 83% | 1018.3 hPa | 0 mm | - | 99 W/m² | - |
| 1788594006 | 21.11° C | 84% | 1018.3 hPa | 0 mm | - | 92 W/m² | - |
| 1788593706 | 21.11° C | 84% | 1018.3 hPa | 0 mm | - | 85 W/m² | - |
| 1788593406 | 20.56° C | 85% | 1018.3 hPa | 0 mm | - | 75 W/m² | - |
| 1788593106 | 20.56° C | 86% | 1018.3 hPa | 0 mm | - | 68 W/m² | - |
| 1788592820 | 20.56° C | 86% | 1017.9 hPa | 0 mm | - | 61 W/m² | - |
* Rain latest hour (hover to see other rain measurements)
** Current wind speed in m/s (hover to see current wind gust speed)